Aérodrome :
LOGIN :

S'inscrire | Disclaimer

   EN    FR    IT 

 










Légende :    VFR   VFR Marginal   IFR   IFR Intensif   IFR Très Intensif
Visi : 
Plafond : 
>= 8 km
>= 3000ft
5 à 8 km
1000 à 3000 ft
1500m à 5 km
500 à 1000 ft
800 à 1500m
200 à 500 ft
< 800m
< 200 ft
Symboles :   Orages  Brouillard  Fortes neiges  Fortes précipitations  Vent > 20 kt
SIGMETs :   Divers  Orages  Givrage  Turbulence  Onde Orograph.  Cendres Volcan.






- Altitude de l'aérodrome : 325 ft
- Code IATA : POX


LFPT - Pontoise

DERNIER METAR :
  • 261130Z AUTO VRB02KT 9000 NSC 09/05 Q1019

METARs EXPIRÉS :
  • 261100Z AUTO VRB02KT 8000 NSC 08/06 Q1020
  • 261030Z AUTO VRB02KT 6000 NSC 07/05 Q1020
  • 261000Z AUTO 00000KT 4800 BR NSC 06/05 Q1020
  • 260930Z AUTO 00000KT 3500 BR NSC 04/04 Q1020
  • 260900Z AUTO 00000KT 0800 R05/1000U FG VV/// 02/02 Q1020

TAF N/A
ATIS : +33 1 30 30 52 08



MET'MAP, la Météo Aéronautique d'un coup d'oeil ! - Copyright ORBIFLY Décembre 2007 - Disclaimer

ORBIFLY MET'MAP TEAM :

Programmation & Développement : Alexandra Zaïnal
Sur une idée originale de : Baudouin d'Aumeries
Assistance à la programmation : Marc-Olivier Méhu
Soutien technique & logistique : Manuel Goepfert

Contact : metmap@orbifly.com




SOURCES & CREDITS :

   NOAA